Location: Home AU
(51.1382°N, 13.5726°E)
Time: 04:35:38
(UTC+01:00)

ISS - Pass Details

Date: 06 January 2018
Orbit: 402 x 407 km, 51.6° (Epoch: 18 January)

Event Time Altitude Azimuth Distance (km) Brightness Sun altitude
Exits shadow 05:13:40 25° 81° (E) 868 -1.5 -26.3°
Drops below altitude 10° 05:15:11 10° 80° (E) 1,470 0.0 -26.0°
Sets 05:17:17 0° 80° (E) 2,333 1.3 -25.7°
